Other Public Products
Issued by NWS Grand Forks, ND

Home | Current Version | Previous Version | Text Only | Print | Product List | Glossary On
Versions: 1 2 3 4 5 6 7 8 9 10 11 12 13 14 15 16 17 18 19 20 21 22 23 24 25 26 27 28 29 30 31 32 33 34 35 36 37 38 39 40 41 42 43 44 45 46 47 48 49 50
000
FPUS83 KFGF 070431
OPUFGF
PRAIRIE TO PINES WEATHER ROUNDUP
NATIONAL WEATHER SERVICE EASTERN NORTH DAKOTA/GRAND FORKS ND
1100 PM CDT MON JUL 06 2015

 **SATELLITE DATA USED TO AUGMENT SKY COVER AT AUTOMATED STATIONS**
 *****  WEATHER ACROSS EASTERN NORTH DAKOTA  *****

CITY           SKY/WX    TMP DP  RH WIND       PRES   REMARKS
GRAND FORKS    CLEAR     50  46  86 NW5       30.14R
GRAND FORKS AF CLEAR     49  47  91 NW2       30.14S
GRAND CITY NWS   N/A     52 N/A N/A MISG        N/A
BUXTON         NOT AVBL
DEVILS LAKE    CLEAR     54  45  71 CALM      30.15S
FARGO          CLEAR     53  46  77 N6        30.15R
WAHPETON ARPT  CLEAR     52  45  76 N6        30.15S
$$

 *****  WEATHER ACROSS CENTRAL AND WESTERN NORTH DAKOTA  *****

CITY           SKY/WX    TMP DP  RH WIND       PRES   REMARKS
JAMESTOWN      CLEAR     54  50  86 NE5       30.16R
BISMARCK       CLEAR     58  50  75 NE5       30.18R
MINOT          CLEAR     54  48  80 CALM      30.16R
MINOT AFB      CLEAR     53  47  81 CALM      30.15R
GARRISON         N/A     54  50  86 NE3       30.17R
WILLISTON      CLEAR     61  46  57 E5        30.16S
DICKINSON      CLEAR     54  50  86 E8        30.17R FOG
HETTINGER      CLEAR     55  51  86 E8        30.19R FOG
$$

 *****  OTHER OBSERVATIONS NORTHEAST NORTH DAKOTA  *****

CITY           SKY/WX    TMP DP  RH WIND       PRES   REMARKS
WALHALLA       FAIR      50  50 100 MISG      30.15R
LANGDON        FAIR      46  45  93 CALM      30.16S
CAVALIER       FAIR      50  48  93 CALM      30.14S
GRAFTON        FAIR      55  50  82 NW5       30.15S
CANDO          FAIR      50  46  87 CALM      30.17S
FORT TOTTEN      N/A     55  45  68 CALM      29.95
ROLLA          FAIR      46  46 100 CALM      30.17S
RUGBY          NOT AVBL
 ***** THE ABOVE OBSERVATIONS ARE NON NWS ARE NOT QUALITY
        CONTROLLED AND MAY MIS-REPORT RAIN FOR SNOW...
$$

 *****  OTHER OBSERVATIONS SOUTHEAST NORTH DAKOTA *****

CITY           SKY/WX    TMP DP  RH WIND       PRES   REMARKS
COOPERSTOWN    NOT AVBL
VALLEY CITY    FAIR      54  50  87 E3        30.17R
OAKES            N/A     54  54 100 NE6       30.16S
GWINNER          N/A     55  52  88 NE6       30.17R
SHEYENNE NWR     N/A     55  48  77 NE3       29.95S
BUFFALO        NOT AVBL
WYNDMERE         N/A     54  48  82 N3          N/A
 ***** THE ABOVE OBSERVATIONS ARE NON NWS ARE NOT QUALITY
       CONTROLLED AND MAY MIS-REPORT RAIN FOR SNOW...
$$

  *****  WEATHER ACROSS NORTHERN MINNESOTA  *****

CITY           SKY/WX    TMP DP  RH WIND       PRES   REMARKS
FLAG ISLAND    CLEAR     57  45  62 W9        30.08S
WARROAD        CLEAR     54  46  76 W6        30.11S
ROSEAU         CLEAR     52  45  76 W3        30.12R
HALLOCK        CLEAR     52  48  87 NW5       30.13S
THF RVR FALLS  CLEAR     50  46  87 CALM      30.14R
HALSTAD        NOT AVBL
FOSSTON        CLEAR     46  43  87 CALM      30.15R
BAUDETTE       CLEAR     51  46  83 W6        30.09R
WASKISH        CLOUDY    55  46  71 NW6       30.11R
CROOKSTON      FAIR      52  48  87 CALM      30.15R
$$
  *****  WEATHER ACROSS CENTRAL AND WEST MINNESOTA  *****

CITY           SKY/WX    TMP DP  RH WIND       PRES   REMARKS
BEMIDJI        CLOUDY    53  47  79 NW3       30.12R
PARK RAPIDS    CLOUDY    55  46  71 NW6       30.12R
WADENA         CLEAR     48  43  81 NW6       30.12S
DETROIT LAKES  MOCLDY    54  45  71 N3        30.15S
MOORHEAD       CLEAR     50  45  81 N3        30.16R
FERGUS FALLS   CLEAR     52  46  82 N3        30.15R
ELBOW LAKE     FAIR      54  47  78 N6        30.13S
MORRIS MN      CLEAR     55  50  82 NW7       30.13R
STAPLES        CLEAR     48  45  87 NW3       30.11F
WHEATON        CLEAR     54  46  76 N5        30.16S
$$
  *****  WEATHER ELSEWHERE ACROSS MINNESOTA  *****

CITY           SKY/WX    TMP DP  RH WIND       PRES   REMARKS
DULUTH         MOCLDY    56  45  66 N7        30.05R
INTRNTL FALLS  CLOUDY    47  44  90 CALM      30.08R
ELY            CLOUDY    54  43  66 NW7       30.06R
CLOQUET        CLOUDY    55  45  67 NW5       30.06S
BRAINERD       CLOUDY    58  46  64 NW10      30.10R
HIBBING        CLOUDY    55  44  66 NW10      30.07R
ALEXANDRIA     CLEAR     57  46  66 N10       30.13R
SAINT CLOUD    PTCLDY    57  46  66 NW8       30.08R
MINNEAPOLIS    PTCLDY    61  48  62 N14G24    30.04R
$$

  *****  WEATHER ACROSS SOUTH DAKOTA  *****

CITY           SKY/WX    TMP DP  RH WIND       PRES   REMARKS
SIOUX FALLS    CLEAR     60  53  77 N6        30.12R
BROOKINGS      CLEAR     57  48  72 N5        30.16S
WATERTOWN      CLEAR     56  51  84 N3        30.15R
HURON          MOCLDY    61  55  81 N5        30.14R HAZE
SISSETON         N/A     53  49  86 N5        30.14R
ABERDEEN       CLEAR     59  52  77 NE6       30.16R
MITCHELL       CLEAR     62  58  86 CALM      30.15R
PIERRE         CLEAR     61  55  81 NE6       30.14R
MOBRIDGE       CLEAR     62  56  80 NE12      30.15R HAZE
RAPID CITY     CLOUDY    63  57  81 N5        30.21R
$$

  *****  SOME WEATHER IN NEARBY STATES *****

CITY           SKY/WX    TMP DP  RH WIND       PRES   REMARKS
GLASGOW MT     CLEAR     62  44  51 SE7       30.11S
GREAT FALLS MT CLEAR     64  49  57 E7        30.08S
CHEYENNE WY    CLOUDY    56  52  86 SE7       30.33R FOG
SCOTTSBLUFF NE CLOUDY    65  58  78 E5        30.25R HAZE
OMAHA NE       CLOUDY    69  61  75 N14       30.04R HAZE
DES MOINES IA  CLOUDY    69  59  70 N9        29.97R HAZE
DAVENPORT IA   LGT RAIN  68  67  96 N14       29.87S FOG
CHICAGO IL     RAIN      70  67  90 W17G25    29.87R FOG
EAU CLAIRE WI  CLOUDY    60  57  89 CALM      29.97R FOG
LA CROSSE WI   CLOUDY    62  58  86 N7        29.96S FOG
$$

  *****  SOME NATIONAL WEATHER *****

CITY           SKY/WX    TMP DP  RH WIND       PRES   REMARKS
LA GUARDIA NY  CLOUDY    75  68  78 S9        30.08F
RALEIGH NC     MOCLDY    77  66  68 NW3       30.10R
ATLANTA GA     PTCLDY    75  69  81 W7        30.14R
NEW ORLEANS LA PTCLDY    82  75  79 S3        30.09R
OKLAHOMA CITY  TSTM      77  70  79 N22G32    29.97R
ALBUQUERQUE NM CLOUDY    71  58  63 E24G32    30.12R
SALT LAKE CITY PTCLDY    76  55  48 SE6       30.04S
LOS ANGELES CA CLOUDY    63  60  90 W8        29.99S
BOISE ID       PTCLDY    83  51  33 N6        29.94R
SEATTLE WA     MOCLDY    70  54  56 SW6       29.98R
$$

*** WEATHER ACROSS MANITOBA...SASKATCHEWAN AND ONTARIO ***
                ***ONTARIO***

CITY           SKY/WX    TMP DP  RH WIND       PRES   REMARKS
GERALDTON      MOCLDY    54  46  76 NW8       29.91R
THUNDER BAY    MOCLDY    48  45  87 W6        29.98R
SIOUX LOOKOUT  CLOUDY    52  46  82 NW6       30.04R
TORONTO        PTCLDY    68  63  83 S7        29.93F
BIG TROUT LK   CLOUDY    54  46  76 W6        29.90F
PICKLE LAKE    NOT AVBL
DRYDEN         CLOUDY    52  46  82 W6        30.06R
KENORA         PTCLDY    54  45  71 SW5       30.08
$$
                *** MANITOBA***

CITY           SKY/WX    TMP DP  RH WIND       PRES   REMARKS
BRANDON        CLEAR     50  46  87 W5        30.14S
DAUPHIN        CLEAR     50  46  87 SW5       30.10S
ISLAND LAKE    PTCLDY    61  48  63 W5        29.96S
PILOT MOUND      N/A     50  46  87 S3          N/A
THE PAS          N/A     63  45  51 W7        30.01R SMOKE
THOMPSON       CLEAR     59  46  63 SW2       29.89F
WINNIPEG       CLEAR     50  46  87 W7        30.12S
LYNN LAKE      HAZE      63  46  55 SW9       29.85F VSB 1/2
CHURCHILL      MOCLDY    54  46  76 S10       29.76S
GILLAM         PTCLDY    57  54  88 S6        29.85F
$$
                ***SASKATCHEWAN***

CITY           SKY/WX    TMP DP  RH WIND       PRES   REMARKS
ESTEVAN        PTCLDY    54  46  76 SE6       30.16R
KINDERSLEY     PTCLDY    55  50  82 SE9       30.04F
LLOYDMINSTER   PTCLDY    55  46  71 E8        30.04S
PRINCE ALBERT  MOCLDY    52  46  82 CALM      30.04F
REGINA         PTCLDY    59  46  63 E7        30.13S


USA.gov is the U.S. government's official web portal to all federal, state and local government web resources and services.